Regional Weather Roundup
Issued by NWS Sioux Falls, SD

Home | Current Version | Previous Version | Graphics & Text | Print | Product List | Glossary On
Versions: 1 2 3 4 5 6 7 8 9 10 11 12 13 14 15 16 17 18 19 20 21 22 23 24 25 26 27 28 29 30 31 32 33 34 35 36 37 38 39 40 41 42 43 44 45 46 47 48 49 50
015
ASUS43 KFSD 270210
RWRFSD

WEATHER ROUNDUP FOR SE SOUTH DAKOTA/SW MINNESOTA/NW IOWA
NATIONAL WEATHER SERVICE SIOUX FALLS SD
900 PM CDT THU MAY 26 2016

NOTE: "FAIR" INDICATES FEW OR NO CLOUDS BELOW 12,000 FEET WITH NO
SIGNIFICANT WEATHER AND OR OBSTRUCTIONS TO VISIBILITY.


SDZ038>040-050-052>070-270300-
SOUTHEAST SOUTH DAKOTA

CITY           SKY/WX    TMP DP  RH WIND       PRES   REMARKS
BROOKINGS      PTCLDY    70  53  54 SE5       29.79F
CHAMBERLAIN    CLOUDY    69  59  71 SE5       29.77R
HURON          CLOUDY    70  55  59 SE10      29.75F
MADISON        FAIR      66  55  68 SE7       29.80F
MITCHELL       CLOUDY    68  61  78 SE6       29.76F
SIOUX FALLS    CLOUDY    66  56  70 E6        29.79F
WINNER         FAIR      67  57  70 E9        29.76S
YANKTON        CLOUDY    70  57  64 NE10      29.74F
$$

MNZ071-072-080-081-089-090-097-098-270300-
SOUTHWEST MINNESOTA

CITY           SKY/WX    TMP DP  RH WIND       PRES   REMARKS
FAIRMONT       CLOUDY    72  55  56 NE7       29.80F
JACKSON        CLOUDY    68  59  73 E5        29.82F
LUVERNE        CLOUDY    70  52  52 E3        29.80F
MARSHALL       CLOUDY    73  51  46 S5        29.81F
MONTEVIDEO     MOCLDY    72  46  40 CALM      29.81F
PIPESTONE      CLOUDY    70  52  52 CALM      29.80F
REDWOOD FALLS  CLOUDY    73  52  47 S7        29.79F
TRACY          CLOUDY    71  52  51 CALM      29.82F
WINDOM         CLOUDY    70  54  56 CALM      29.82F
WORTHINGTON    CLOUDY    68  60  75 CALM      29.83F
$$

IAZ001>003-012>014-020>022-031-032-NEZ013-014-SDZ071-270300-
NORTHWEST IOWA

CITY           SKY/WX    TMP DP  RH WIND       PRES   REMARKS
CHEROKEE       CLOUDY    65  59  81 S9        29.84R
ESTHERVILLE    CLOUDY    70  57  63 S13G23    29.80F
LE MARS        CLOUDY    68  59  73 S13G18    29.82R
ORANGE CITY    CLOUDY    68  59  73 S9        29.82S
SHELDON        CLOUDY    68  59  73 S16       29.82R
SIOUX CITY     CLOUDY    68  57  68 SE15      29.80F
SPENCER        CLOUDY    67  57  70 S17G26    29.81F
STORM LAKE     CLOUDY    64  55  72 S20G26    29.81F
$$

ABBREVIATIONS USED IN REMARKS
   TC - TEMPERATURE IN CELSIUS
  WCI - WIND CHILL INDEX
   HX - HEAT INDEX
  VSB - VISIBILITY





USA.gov is the U.S. government's official web portal to all federal, state and local government web resources and services.